This demonstration page uses our WeatherBlox Daily Observations layout. Learn more.

Left ArrowRight Arrow

30.00354, -91.81873

Hourly Observations for July 22, 2022

Temp ( °F °C ) Dew Point ( °F °C ) Humidity (%) Winds ( mph kmh ) Pressure ( in mb ) Visibility ( mi km ) Precip ( " mm )
12:53 am 00:53 Clear 80 26.7 76 24.4 87 87 Calm 29.98 1015 10 16 0.00 0.00
1:53 am 01:53 Clear 80 26.7 76 24.4 87 87 ESE 5 7 29.99 1016 10 16 0.00 0.00
2:53 am 02:53 Clear 79 26.1 76 24.4 90 90 S 5 7 29.98 1015 9 14 0.00 0.00
3:53 am 03:53 Clear 79 26.1 76 24.4 90 90 SSW 3 6 29.96 1015 9 14 0.00 0.00
4:53 am 04:53 Clear 79 26.1 76 24.4 90 90 Calm 29.98 1015 9 14 0.00 0.00
5:53 am 05:53 Mostly Clear 79 26.1 76 24.4 90 90 Calm 29.99 1016 8 13 0.00 0.00
6:53 am 06:53 Mostly Cloudy 80 26.7 76 24.4 87 87 NE 3 6 30.03 1017 10 16 0.00 0.00
7:15 am 07:15 Partly Cloudy with Nearby Thunderstorms 81 27.2 77 25 88 88 NE 7 11 30.03 1017 10 16 0.00 0.00
7:42 am 07:42 Mostly Cloudy with Nearby Thunderstorms 81 27.2 77 25 88 88 undefined N/A 30.06 1018 9 14 0.00 0.00
7:53 am 07:53 Mostly Cloudy with Nearby Thunderstorms 77 25 70 21.1 79 79 undefined N/A 30.08 1019 10 16 0.00 0.00
8:00 am 08:00 Cloudy with Thunderstorms 75 23.9 69 20.6 82 82 ESE 17 28 30.11 1020 2 3 0.09 2.29
8:07 am 08:07 Cloudy with Strong Thunderstorms 74 23.3 70 21.1 88 88 S 15 24 30.10 1019 1 2 0.16 4.06
8:13 am 08:13 Cloudy with Thunderstorms 73 22.8 70 21.1 90 90 S 10 17 30.09 1019 3 5 0.17 4.32
8:22 am 08:22 Cloudy with Nearby Thunderstorms 72 22.2 69 20.6 91 91 S 5 7 30.08 1019 10 16 0.17 4.32
8:53 am 08:53 Mostly Cloudy with Nearby Thunderstorms 73 22.8 70 21.1 90 90 Calm 30.07 1018 10 16 0.17 4.32
9:04 am 09:04 Mostly Cloudy with Light Rain 73 22.8 70 21.1 90 90 SW 3 6 30.07 1018 10 16 0.00 0.00
9:53 am 09:53 Partly Cloudy with Light Rain 74 23.3 71 21.7 91 91 undefined N/A 30.06 1018 10 16 0.03 0.76
10:53 am 10:53 Mostly Cloudy 77 25 72 22.2 85 85 SSW 12 19 30.01 1016 10 16 0.03 0.76
11:53 am 11:53 Partly Cloudy 79 26.1 72 22.2 79 79 N 7 11 30.05 1018 10 16 0.00 0.00
12:53 pm 12:53 Sunny 83 28.3 73 22.8 72 72 VRB 3 6 30.06 1018 10 16 0.00 0.00
1:53 pm 13:53 Sunny 84 28.9 72 22.2 67 67 Calm 30.05 1018 10 16 0.00 0.00
2:53 pm 14:53 Sunny 85 29.4 72 22.2 65 65 SSW 3 6 30.04 1017 10 16 0.00 0.00
3:53 pm 15:53 Sunny 85 29.4 73 22.8 68 68 NW 3 6 30.03 1017 10 16 0.00 0.00
4:53 pm 16:53 Mostly Sunny 86 30 74 23.3 67 67 WSW 3 6 30.03 1017 10 16 0.00 0.00
5:53 pm 17:53 Partly Cloudy 85 29.4 74 23.3 70 70 Calm 30.02 1017 10 16 0.00 0.00
6:53 pm 18:53 Partly Cloudy 85 29.4 74 23.3 70 70 Calm 30.03 1017 10 16 0.00 0.00
7:53 pm 19:53 Partly Cloudy 83 28.3 75 23.9 77 77 Calm 30.03 1017 10 16 0.00 0.00
8:53 pm 20:53 Clear 82 27.8 76 24.4 82 82 E 3 6 30.04 1017 10 16 0.00 0.00
9:53 pm 21:53 Partly Cloudy 81 27.2 76 24.4 85 85 E 5 7 30.04 1017 10 16 0.00 0.00
10:53 pm 22:53 Clear 80 26.7 76 24.4 87 87 ESE 3 6 30.04 1017 10 16 0.00 0.00
11:53 pm 23:53 Clear 79 26.1 76 24.4 90 90 Calm 30.04 1017 10 16 0.00 0.00

Powered by AerisWeather